Year,Month,Day,Hour,Minute,Value (Times are PST for temperature in C)
2020,02,01,00,00,11.00
2020,02,01,00,01,11.10
2020,02,01,00,02,11.10
2020,02,01,00,03,11.10
2020,02,01,00,04,11.10
2020,02,01,00,05,11.10
2020,02,01,00,06,11.10
2020,02,01,00,07,11.10
2020,02,01,00,08,11.10
2020,02,01,00,09,11.10
2020,02,01,00,10,11.10
2020,02,01,00,11,11.10
2020,02,01,00,12,11.10
2020,02,01,00,13,11.20
2020,02,01,00,14,11.20
2020,02,01,00,15,11.20
2020,02,01,00,16,11.20
2020,02,01,00,17,11.20
2020,02,01,00,18,11.20
2020,02,01,00,19,11.30
2020,02,01,00,20,11.30
2020,02,01,00,21,11.30
2020,02,01,00,22,11.40
2020,02,01,00,23,11.30
2020,02,01,00,24,11.30
2020,02,01,00,25,11.30
2020,02,01,00,26,11.30
2020,02,01,00,27,11.30
2020,02,01,00,28,11.30
2020,02,01,00,29,11.30
2020,02,01,00,30,11.30
2020,02,01,00,31,11.30
2020,02,01,00,32,11.30
2020,02,01,00,33,11.30
2020,02,01,00,34,11.30
2020,02,01,00,35,11.30
2020,02,01,00,36,11.30
2020,02,01,00,37,11.30
2020,02,01,00,38,11.40
2020,02,01,00,39,11.40
2020,02,01,00,40,11.40
2020,02,01,00,41,11.50
2020,02,01,00,42,11.50
2020,02,01,00,43,11.50
2020,02,01,00,44,11.50
2020,02,01,00,45,11.50
2020,02,01,00,46,11.50
2020,02,01,00,47,11.50
2020,02,01,00,48,11.60
2020,02,01,00,49,11.60
2020,02,01,00,50,11.60
2020,02,01,00,51,11.60
2020,02,01,00,52,11.60
2020,02,01,00,53,11.70
2020,02,01,00,54,11.70
2020,02,01,00,55,11.70
2020,02,01,00,56,11.80
2020,02,01,00,57,11.80
2020,02,01,00,58,11.80
2020,02,01,00,59,11.80
2020,02,01,01,00,11.80
2020,02,01,01,01,11.80
2020,02,01,01,02,11.90
2020,02,01,01,03,11.90
2020,02,01,01,04,11.90
2020,02,01,01,05,12.00
2020,02,01,01,06,12.00
2020,02,01,01,07,12.00
2020,02,01,01,08,12.00
2020,02,01,01,09,12.00
2020,02,01,01,10,11.90
2020,02,01,01,11,11.90
2020,02,01,01,12,11.90
2020,02,01,01,13,11.90
2020,02,01,01,14,11.90
2020,02,01,01,15,11.90
2020,02,01,01,16,11.90
2020,02,01,01,17,11.90
2020,02,01,01,18,11.90
2020,02,01,01,19,11.90
2020,02,01,01,20,11.90
2020,02,01,01,21,11.90
2020,02,01,01,22,11.80
2020,02,01,01,23,11.80
2020,02,01,01,24,11.80
2020,02,01,01,25,11.80
2020,02,01,01,26,11.80
2020,02,01,01,27,11.80
2020,02,01,01,28,11.80
2020,02,01,01,29,11.80
2020,02,01,01,30,11.80
2020,02,01,01,31,11.80
2020,02,01,01,32,11.80
2020,02,01,01,33,11.80
2020,02,01,01,34,11.80
2020,02,01,01,35,11.80
2020,02,01,01,36,11.80
2020,02,01,01,37,11.80
2020,02,01,01,38,11.80
2020,02,01,01,39,11.90
2020,02,01,01,40,11.80
2020,02,01,01,41,11.80
2020,02,01,01,42,11.80
2020,02,01,01,43,11.80
2020,02,01,01,44,11.80
2020,02,01,01,45,11.80
2020,02,01,01,46,11.80
2020,02,01,01,47,11.80
2020,02,01,01,48,11.80
2020,02,01,01,49,11.80
2020,02,01,01,50,11.80
2020,02,01,01,51,11.70
2020,02,01,01,52,11.70
2020,02,01,01,53,11.80
2020,02,01,01,54,11.80
2020,02,01,01,55,11.80
2020,02,01,01,56,11.80
2020,02,01,01,57,11.70
2020,02,01,01,58,11.70
2020,02,01,01,59,11.70
2020,02,01,02,00,11.70
2020,02,01,02,01,11.70
2020,02,01,02,02,11.70
2020,02,01,02,03,11.70
2020,02,01,02,04,11.70
2020,02,01,02,05,11.70
2020,02,01,02,06,11.60
2020,02,01,02,07,11.60
2020,02,01,02,08,11.60
2020,02,01,02,09,11.60
2020,02,01,02,10,11.60
2020,02,01,02,11,11.60
2020,02,01,02,12,11.60
2020,02,01,02,13,11.60
2020,02,01,02,14,11.60
2020,02,01,02,15,11.60
2020,02,01,02,16,11.60
2020,02,01,02,17,11.60
2020,02,01,02,18,11.60
2020,02,01,02,19,11.60
2020,02,01,02,20,11.60
2020,02,01,02,21,11.60
2020,02,01,02,22,11.60
2020,02,01,02,23,11.60
2020,02,01,02,24,11.60
2020,02,01,02,25,11.60
2020,02,01,02,26,11.60
2020,02,01,02,27,11.60
2020,02,01,02,28,11.60
2020,02,01,02,29,11.60
2020,02,01,02,30,11.50
2020,02,01,02,31,11.50
2020,02,01,02,32,11.50
2020,02,01,02,33,11.50
2020,02,01,02,34,11.50
2020,02,01,02,35,11.60
2020,02,01,02,36,11.60
2020,02,01,02,37,11.60
2020,02,01,02,38,11.50
2020,02,01,02,39,11.50
2020,02,01,02,40,11.50
2020,02,01,02,41,11.50
2020,02,01,02,42,11.60
2020,02,01,02,43,11.60
2020,02,01,02,44,11.50
2020,02,01,02,45,11.50
2020,02,01,02,46,11.40
2020,02,01,02,47,11.40
2020,02,01,02,48,11.40
2020,02,01,02,49,11.40
2020,02,01,02,50,11.40
2020,02,01,02,51,11.40
2020,02,01,02,52,11.40
2020,02,01,02,53,11.30
2020,02,01,02,54,11.40
2020,02,01,02,55,11.40
2020,02,01,02,56,11.40
2020,02,01,02,57,11.30
2020,02,01,02,58,11.30
2020,02,01,02,59,11.30
2020,02,01,03,00,11.30
2020,02,01,03,01,11.30
2020,02,01,03,02,11.30
2020,02,01,03,03,11.30
2020,02,01,03,04,11.30
2020,02,01,03,05,11.20
2020,02,01,03,06,11.20
2020,02,01,03,07,11.20
2020,02,01,03,08,11.20
2020,02,01,03,09,11.20
2020,02,01,03,10,11.20
2020,02,01,03,11,11.20
2020,02,01,03,12,11.20
2020,02,01,03,13,11.20
2020,02,01,03,14,11.10
2020,02,01,03,15,11.10
2020,02,01,03,16,11.10
2020,02,01,03,17,11.10
2020,02,01,03,18,11.10
2020,02,01,03,19,11.10
2020,02,01,03,20,11.10
2020,02,01,03,21,11.10
2020,02,01,03,22,11.10
2020,02,01,03,23,11.10
2020,02,01,03,24,11.10
2020,02,01,03,25,11.10
2020,02,01,03,26,11.10
2020,02,01,03,27,11.10
2020,02,01,03,28,11.10
2020,02,01,03,29,11.10
2020,02,01,03,30,11.10
2020,02,01,03,31,11.10
2020,02,01,03,32,11.10
2020,02,01,03,33,11.10
2020,02,01,03,34,11.20
2020,02,01,03,35,11.20
2020,02,01,03,36,11.20
2020,02,01,03,37,11.20
2020,02,01,03,38,11.20
2020,02,01,03,39,11.20
2020,02,01,03,40,11.20
2020,02,01,03,41,11.20
2020,02,01,03,42,11.20
2020,02,01,03,43,11.20
2020,02,01,03,44,11.20
2020,02,01,03,45,11.20
2020,02,01,03,46,11.20
2020,02,01,03,47,11.20
2020,02,01,03,48,11.20
2020,02,01,03,49,11.20
2020,02,01,03,50,11.20
2020,02,01,03,51,11.20
2020,02,01,03,52,11.20
2020,02,01,03,53,11.10
2020,02,01,03,54,11.10
2020,02,01,03,55,11.00
2020,02,01,03,56,10.90
2020,02,01,03,57,10.80
2020,02,01,03,58,10.80
2020,02,01,03,59,10.70
2020,02,01,04,00,10.60
2020,02,01,04,01,10.60
2020,02,01,04,02,10.60
2020,02,01,04,03,10.60
2020,02,01,04,04,10.60
2020,02,01,04,05,10.60
2020,02,01,04,06,10.60
2020,02,01,04,07,10.50
2020,02,01,04,08,10.50
2020,02,01,04,09,10.50
2020,02,01,04,10,10.40
2020,02,01,04,11,10.40
2020,02,01,04,12,10.40
2020,02,01,04,13,10.40
2020,02,01,04,14,10.40
2020,02,01,04,15,10.40
2020,02,01,04,16,10.40
2020,02,01,04,17,10.40
2020,02,01,04,18,10.40
2020,02,01,04,19,10.40
2020,02,01,04,20,10.40
2020,02,01,04,21,10.40
2020,02,01,04,22,10.40
2020,02,01,04,23,10.40
2020,02,01,04,24,10.40
2020,02,01,04,25,10.40
2020,02,01,04,26,10.40
2020,02,01,04,27,10.40
2020,02,01,04,28,10.40
2020,02,01,04,29,10.40
2020,02,01,04,30,10.40
2020,02,01,04,31,10.40
2020,02,01,04,32,10.40
2020,02,01,04,33,10.40
2020,02,01,04,34,10.40
2020,02,01,04,35,10.50
2020,02,01,04,36,10.50
2020,02,01,04,37,10.50
2020,02,01,04,38,10.50
2020,02,01,04,39,10.50
2020,02,01,04,40,10.60
2020,02,01,04,41,10.70
2020,02,01,04,42,10.70
2020,02,01,04,43,10.80
2020,02,01,04,44,10.80
2020,02,01,04,45,10.80
2020,02,01,04,46,10.80
2020,02,01,04,47,10.80
2020,02,01,04,48,10.80
2020,02,01,04,49,10.80
2020,02,01,04,50,10.90
2020,02,01,04,51,10.90
2020,02,01,04,52,10.90
2020,02,01,04,53,10.90
2020,02,01,04,54,11.00
2020,02,01,04,55,11.00
2020,02,01,04,56,11.00
2020,02,01,04,57,11.00
2020,02,01,04,58,11.10
2020,02,01,04,59,11.10
2020,02,01,05,00,11.10
2020,02,01,05,01,11.10
2020,02,01,05,02,11.10
2020,02,01,05,03,11.10
2020,02,01,05,04,11.10
2020,02,01,05,05,11.10
2020,02,01,05,06,11.10
2020,02,01,05,07,11.10
2020,02,01,05,08,11.20
2020,02,01,05,09,11.20
2020,02,01,05,10,11.20
2020,02,01,05,11,11.20
2020,02,01,05,12,11.30
2020,02,01,05,13,11.30
2020,02,01,05,14,11.20
2020,02,01,05,15,11.20
2020,02,01,05,16,11.10
2020,02,01,05,17,11.10
2020,02,01,05,18,11.00
2020,02,01,05,19,11.00
2020,02,01,05,20,10.90
2020,02,01,05,21,10.90
2020,02,01,05,22,10.80
2020,02,01,05,23,10.80
2020,02,01,05,24,10.80
2020,02,01,05,25,10.70
2020,02,01,05,26,10.70
2020,02,01,05,27,10.60
2020,02,01,05,28,10.60
2020,02,01,05,29,10.60
2020,02,01,05,30,10.50
2020,02,01,05,31,10.50
2020,02,01,05,32,10.50
2020,02,01,05,33,10.50
2020,02,01,05,34,10.40
2020,02,01,05,35,10.40
2020,02,01,05,36,10.40
2020,02,01,05,37,10.30
2020,02,01,05,38,10.30
2020,02,01,05,39,10.30
2020,02,01,05,40,10.30
2020,02,01,05,41,10.20
2020,02,01,05,42,10.20
2020,02,01,05,43,10.20
2020,02,01,05,44,10.20
2020,02,01,05,45,10.20
2020,02,01,05,46,10.10
2020,02,01,05,47,10.10
2020,02,01,05,48,10.00
2020,02,01,05,49,10.00
2020,02,01,05,50,9.90
2020,02,01,05,51,9.90
2020,02,01,05,52,9.90
2020,02,01,05,53,9.90
2020,02,01,05,54,9.80
2020,02,01,05,55,9.80
2020,02,01,05,56,9.80
2020,02,01,05,57,9.80
2020,02,01,05,58,9.70
2020,02,01,05,59,9.70
2020,02,01,06,00,9.60
2020,02,01,06,01,9.60
2020,02,01,06,02,9.50
2020,02,01,06,03,9.50
2020,02,01,06,04,9.40
2020,02,01,06,05,9.40
2020,02,01,06,06,9.40
2020,02,01,06,07,9.30
2020,02,01,06,08,9.30
2020,02,01,06,09,9.30
2020,02,01,06,10,9.20
2020,02,01,06,11,9.20
2020,02,01,06,12,9.20
2020,02,01,06,13,9.20
2020,02,01,06,14,9.10
2020,02,01,06,15,9.10
2020,02,01,06,16,9.10
2020,02,01,06,17,9.10
2020,02,01,06,18,9.10
2020,02,01,06,19,9.10
2020,02,01,06,20,9.00
2020,02,01,06,21,9.00
2020,02,01,06,22,9.00
2020,02,01,06,23,8.90
2020,02,01,06,24,8.90
2020,02,01,06,25,8.90
2020,02,01,06,26,8.90
2020,02,01,06,27,8.90
2020,02,01,06,28,8.80
2020,02,01,06,29,8.80
2020,02,01,06,30,8.80
2020,02,01,06,31,8.80
2020,02,01,06,32,8.70
2020,02,01,06,33,8.70
2020,02,01,06,34,8.70
2020,02,01,06,35,8.60
2020,02,01,06,36,8.60
2020,02,01,06,37,8.60
2020,02,01,06,38,8.50
2020,02,01,06,39,8.50
2020,02,01,06,40,8.50
2020,02,01,06,41,8.40
2020,02,01,06,42,8.40
2020,02,01,06,43,8.40
2020,02,01,06,44,8.40
2020,02,01,06,45,8.40
2020,02,01,06,46,8.40
2020,02,01,06,47,8.40
2020,02,01,06,48,8.40
2020,02,01,06,49,8.40
2020,02,01,06,50,8.40
2020,02,01,06,51,8.30
2020,02,01,06,52,8.30
2020,02,01,06,53,8.30
2020,02,01,06,54,8.30
2020,02,01,06,55,8.30
2020,02,01,06,56,8.20
2020,02,01,06,57,8.20
2020,02,01,06,58,8.20
2020,02,01,06,59,8.20
2020,02,01,07,00,8.20
2020,02,01,07,01,8.20
2020,02,01,07,02,8.20
2020,02,01,07,03,8.20
2020,02,01,07,04,8.20
2020,02,01,07,05,8.10
2020,02,01,07,06,8.10
2020,02,01,07,07,8.10
2020,02,01,07,08,8.10
2020,02,01,07,09,8.00
2020,02,01,07,10,8.00
2020,02,01,07,11,8.00
2020,02,01,07,12,7.90
2020,02,01,07,13,7.90
2020,02,01,07,14,7.90
2020,02,01,07,15,7.90
2020,02,01,07,16,7.90
2020,02,01,07,17,7.90
2020,02,01,07,18,7.90
2020,02,01,07,19,7.90
2020,02,01,07,20,7.90
2020,02,01,07,21,7.90
2020,02,01,07,22,7.80
2020,02,01,07,23,7.80
2020,02,01,07,24,7.80
2020,02,01,07,25,7.80
2020,02,01,07,26,7.80
2020,02,01,07,27,7.80
2020,02,01,07,28,7.80
2020,02,01,07,29,7.80
2020,02,01,07,30,7.80
2020,02,01,07,31,7.80
2020,02,01,07,32,7.80
2020,02,01,07,33,7.80
2020,02,01,07,34,7.80
2020,02,01,07,35,7.80
2020,02,01,07,36,7.70
2020,02,01,07,37,7.70
2020,02,01,07,38,7.80
2020,02,01,07,39,7.80
2020,02,01,07,40,7.80
2020,02,01,07,41,7.70
2020,02,01,07,42,7.70
2020,02,01,07,43,7.70
2020,02,01,07,44,7.70
2020,02,01,07,45,7.70
2020,02,01,07,46,7.70
2020,02,01,07,47,7.70
2020,02,01,07,48,7.70
2020,02,01,07,49,7.70
2020,02,01,07,50,7.70
2020,02,01,07,51,7.60
2020,02,01,07,52,7.60
2020,02,01,07,53,7.60
2020,02,01,07,54,7.60
2020,02,01,07,55,7.60
2020,02,01,07,56,7.60
2020,02,01,07,57,7.60
2020,02,01,07,58,7.60
2020,02,01,07,59,7.60
2020,02,01,08,00,7.60
2020,02,01,08,01,7.50
2020,02,01,08,02,7.50
2020,02,01,08,03,7.50
2020,02,01,08,04,7.50
2020,02,01,08,05,7.40
2020,02,01,08,06,7.40
2020,02,01,08,07,7.40
2020,02,01,08,08,7.40
2020,02,01,08,09,7.40
2020,02,01,08,10,7.40
2020,02,01,08,11,7.40
2020,02,01,08,12,7.40
2020,02,01,08,13,7.40
2020,02,01,08,14,7.40
2020,02,01,08,15,7.40
2020,02,01,08,16,7.40
2020,02,01,08,17,7.40
2020,02,01,08,18,7.40
2020,02,01,08,19,7.40
2020,02,01,08,20,7.40
2020,02,01,08,21,7.40
2020,02,01,08,22,7.40
2020,02,01,08,23,7.40
2020,02,01,08,24,7.40
2020,02,01,08,25,7.40
2020,02,01,08,26,7.40
2020,02,01,08,27,7.40
2020,02,01,08,28,7.40
2020,02,01,08,29,7.40
2020,02,01,08,30,7.40
2020,02,01,08,31,7.40
2020,02,01,08,32,7.30
2020,02,01,08,33,7.30
2020,02,01,08,34,7.30
2020,02,01,08,35,7.30
2020,02,01,08,36,7.30
2020,02,01,08,37,7.30
2020,02,01,08,38,7.30
2020,02,01,08,39,7.30
2020,02,01,08,40,7.30
2020,02,01,08,41,7.30
2020,02,01,08,42,7.30
2020,02,01,08,43,7.30
2020,02,01,08,44,7.30
2020,02,01,08,45,7.30
2020,02,01,08,46,7.30
2020,02,01,08,47,7.30
2020,02,01,08,48,7.30
2020,02,01,08,49,7.30
2020,02,01,08,50,7.30
2020,02,01,08,51,7.30
2020,02,01,08,52,7.30
2020,02,01,08,53,7.30
2020,02,01,08,54,7.30
2020,02,01,08,55,7.30
2020,02,01,08,56,7.30
2020,02,01,08,57,7.30
2020,02,01,08,58,7.30
2020,02,01,08,59,7.30
2020,02,01,09,00,7.30
2020,02,01,09,01,7.30
2020,02,01,09,02,7.30
2020,02,01,09,03,7.30
2020,02,01,09,04,7.30
2020,02,01,09,05,7.30
2020,02,01,09,06,7.30
2020,02,01,09,07,7.30
2020,02,01,09,08,7.30
2020,02,01,09,09,7.30
2020,02,01,09,10,7.30
2020,02,01,09,11,7.20
2020,02,01,09,12,7.20
2020,02,01,09,13,7.20
2020,02,01,09,14,7.20
2020,02,01,09,15,7.20
2020,02,01,09,16,7.20
2020,02,01,09,17,7.20
2020,02,01,09,18,7.20
2020,02,01,09,19,7.30
2020,02,01,09,20,7.30
2020,02,01,09,21,7.30
2020,02,01,09,22,7.30
2020,02,01,09,23,7.30
2020,02,01,09,24,7.30
2020,02,01,09,25,7.30
2020,02,01,09,26,7.20
2020,02,01,09,27,7.20
2020,02,01,09,28,7.20
2020,02,01,09,29,7.20
2020,02,01,09,30,7.20
2020,02,01,09,31,7.20
2020,02,01,09,32,7.20
2020,02,01,09,33,7.20
2020,02,01,09,34,7.20
2020,02,01,09,35,7.20
2020,02,01,09,36,7.20
2020,02,01,09,37,7.20
2020,02,01,09,38,7.20
2020,02,01,09,39,7.20
2020,02,01,09,40,7.20
2020,02,01,09,41,7.20
2020,02,01,09,42,7.20
2020,02,01,09,43,7.20
2020,02,01,09,44,7.30
2020,02,01,09,45,7.30
2020,02,01,09,46,7.20
2020,02,01,09,47,7.20
2020,02,01,09,48,7.20
2020,02,01,09,49,7.20
2020,02,01,09,50,7.20
2020,02,01,09,51,7.20
2020,02,01,09,52,7.30
2020,02,01,09,53,7.30
2020,02,01,09,54,7.30
2020,02,01,09,55,7.30
2020,02,01,09,56,7.30
2020,02,01,09,57,7.30
2020,02,01,09,58,7.30
2020,02,01,09,59,7.30
2020,02,01,10,00,7.40
2020,02,01,10,01,7.40
2020,02,01,10,02,7.40
2020,02,01,10,03,7.40
2020,02,01,10,04,7.50
2020,02,01,10,05,7.50
2020,02,01,10,06,7.50
2020,02,01,10,07,7.50
2020,02,01,10,08,7.60
2020,02,01,10,09,7.60
2020,02,01,10,10,7.60
2020,02,01,10,11,7.60
2020,02,01,10,12,7.60
2020,02,01,10,13,7.60
2020,02,01,10,14,7.60
2020,02,01,10,15,7.60
2020,02,01,10,16,7.60
2020,02,01,10,17,7.60
2020,02,01,10,18,7.60
2020,02,01,10,19,7.60
2020,02,01,10,20,7.60
2020,02,01,10,21,7.60
2020,02,01,10,22,7.60
2020,02,01,10,23,7.60
2020,02,01,10,24,7.60
2020,02,01,10,25,7.60
2020,02,01,10,26,7.60
2020,02,01,10,27,7.60
2020,02,01,10,28,7.60
2020,02,01,10,29,7.50
2020,02,01,10,30,7.50
2020,02,01,10,31,7.50
2020,02,01,10,32,7.50
2020,02,01,10,33,7.50
2020,02,01,10,34,7.40
2020,02,01,10,35,7.40
2020,02,01,10,36,7.40
2020,02,01,10,37,7.40
2020,02,01,10,38,7.40
2020,02,01,10,39,7.40
2020,02,01,10,40,7.40
2020,02,01,10,41,7.40
2020,02,01,10,42,7.40
2020,02,01,10,43,7.40
2020,02,01,10,44,7.40
2020,02,01,10,45,7.40
2020,02,01,10,46,7.40
2020,02,01,10,47,7.40
2020,02,01,10,48,7.40
2020,02,01,10,49,7.40
2020,02,01,10,50,7.40
2020,02,01,10,51,7.40
2020,02,01,10,52,7.40
2020,02,01,10,53,7.40
2020,02,01,10,54,7.40
2020,02,01,10,55,7.40
2020,02,01,10,56,7.40
2020,02,01,10,57,7.40
2020,02,01,10,58,7.40
2020,02,01,10,59,7.40
2020,02,01,11,00,7.40
2020,02,01,11,01,7.40
2020,02,01,11,02,7.40
2020,02,01,11,03,7.40
2020,02,01,11,04,7.40
2020,02,01,11,05,7.40
2020,02,01,11,06,7.40
2020,02,01,11,07,7.40
2020,02,01,11,08,7.50
2020,02,01,11,09,7.50
2020,02,01,11,10,7.50
2020,02,01,11,11,7.50
2020,02,01,11,12,7.60
2020,02,01,11,13,7.60
2020,02,01,11,14,7.60
2020,02,01,11,15,7.60
2020,02,01,11,16,7.60
2020,02,01,11,17,7.60
2020,02,01,11,18,7.50
2020,02,01,11,19,7.50
2020,02,01,11,20,7.50
2020,02,01,11,21,7.50
2020,02,01,11,22,7.50
2020,02,01,11,23,7.50
2020,02,01,11,24,7.50
2020,02,01,11,25,7.60
2020,02,01,11,26,7.60
2020,02,01,11,27,7.60
2020,02,01,11,28,7.60
2020,02,01,11,29,7.60
2020,02,01,11,30,7.70
2020,02,01,11,31,7.70
2020,02,01,11,32,7.70
2020,02,01,11,33,7.70
2020,02,01,11,34,7.80
2020,02,01,11,35,7.80
2020,02,01,11,36,7.90
2020,02,01,11,37,7.90
2020,02,01,11,38,7.90
2020,02,01,11,39,7.90
2020,02,01,11,40,7.90
2020,02,01,11,41,7.90
2020,02,01,11,42,7.90
2020,02,01,11,43,8.00
2020,02,01,11,44,8.00
2020,02,01,11,45,8.00
2020,02,01,11,46,8.10
2020,02,01,11,47,8.10
2020,02,01,11,48,8.10
2020,02,01,11,49,8.10
2020,02,01,11,50,8.10
2020,02,01,11,51,8.20
2020,02,01,11,52,8.20
2020,02,01,11,53,8.20
2020,02,01,11,54,8.10
2020,02,01,11,55,8.10
2020,02,01,11,56,8.10
2020,02,01,11,57,8.20
2020,02,01,11,58,8.20
2020,02,01,11,59,8.30
2020,02,01,12,00,8.30
2020,02,01,12,01,8.30
2020,02,01,12,02,8.30
2020,02,01,12,03,8.30
2020,02,01,12,04,8.30
2020,02,01,12,05,8.40
2020,02,01,12,06,8.40
2020,02,01,12,07,8.50
2020,02,01,12,08,8.60
2020,02,01,12,09,8.60
2020,02,01,12,10,8.60
2020,02,01,12,11,8.60
2020,02,01,12,12,8.60
2020,02,01,12,13,8.60
2020,02,01,12,14,8.70
2020,02,01,12,15,8.70
2020,02,01,12,16,8.70
2020,02,01,12,17,8.70
2020,02,01,12,18,8.70
2020,02,01,12,19,8.70
2020,02,01,12,20,8.60
2020,02,01,12,21,8.60
2020,02,01,12,22,8.60
2020,02,01,12,23,8.50
2020,02,01,12,24,8.50
2020,02,01,12,25,8.50
2020,02,01,12,26,8.50
2020,02,01,12,27,8.60
2020,02,01,12,28,8.60
2020,02,01,12,29,8.60
2020,02,01,12,30,8.60
2020,02,01,12,31,8.70
2020,02,01,12,32,8.70
2020,02,01,12,33,8.60
2020,02,01,12,34,8.50
2020,02,01,12,35,8.40
2020,02,01,12,36,8.40
2020,02,01,12,37,8.30
2020,02,01,12,38,8.40
2020,02,01,12,39,8.40
2020,02,01,12,40,8.40
2020,02,01,12,41,8.50
2020,02,01,12,42,8.50
2020,02,01,12,43,8.50
2020,02,01,12,44,8.40
2020,02,01,12,45,8.30
2020,02,01,12,46,8.20
2020,02,01,12,47,8.10
2020,02,01,12,48,8.00
2020,02,01,12,49,7.90
2020,02,01,12,50,7.90
2020,02,01,12,51,7.90
2020,02,01,12,52,7.90
2020,02,01,12,53,7.80
2020,02,01,12,54,7.70
2020,02,01,12,55,7.70
2020,02,01,12,56,7.60
2020,02,01,12,57,7.60
2020,02,01,12,58,7.50
2020,02,01,12,59,7.50
2020,02,01,13,00,7.50
2020,02,01,13,01,7.50
2020,02,01,13,02,7.50
2020,02,01,13,03,7.50
2020,02,01,13,04,7.40
2020,02,01,13,05,7.40
2020,02,01,13,06,7.40
2020,02,01,13,07,7.40
2020,02,01,13,08,7.40
2020,02,01,13,09,7.40
2020,02,01,13,10,7.40
2020,02,01,13,11,7.40
2020,02,01,13,12,7.40
2020,02,01,13,13,7.50
2020,02,01,13,14,7.40
2020,02,01,13,15,7.40
2020,02,01,13,16,7.50
2020,02,01,13,17,7.50
2020,02,01,13,18,7.50
2020,02,01,13,19,7.50
2020,02,01,13,20,7.60
2020,02,01,13,21,7.60
2020,02,01,13,22,7.60
2020,02,01,13,23,7.60
2020,02,01,13,24,7.60
2020,02,01,13,25,7.60
2020,02,01,13,26,7.60
2020,02,01,13,27,7.70
2020,02,01,13,28,7.70
2020,02,01,13,29,7.70
2020,02,01,13,30,7.70
2020,02,01,13,31,7.70
2020,02,01,13,32,7.70
2020,02,01,13,33,7.70
2020,02,01,13,34,7.70
2020,02,01,13,35,7.70
2020,02,01,13,36,7.70
2020,02,01,13,37,7.70
2020,02,01,13,38,7.70
2020,02,01,13,39,7.70
2020,02,01,13,40,7.70
2020,02,01,13,41,7.70
2020,02,01,13,42,7.70
2020,02,01,13,43,7.70
2020,02,01,13,44,7.70
2020,02,01,13,45,7.70
2020,02,01,13,46,7.70
2020,02,01,13,47,7.70
2020,02,01,13,48,7.70
2020,02,01,13,49,7.70
2020,02,01,13,50,7.70
2020,02,01,13,51,7.70
2020,02,01,13,52,7.70
2020,02,01,13,53,7.70
2020,02,01,13,54,7.70
2020,02,01,13,55,7.80
2020,02,01,13,56,7.80
2020,02,01,13,57,7.80
2020,02,01,13,58,7.80
2020,02,01,13,59,7.80
2020,02,01,14,00,7.80
2020,02,01,14,01,7.80
2020,02,01,14,02,7.80
2020,02,01,14,03,7.80
2020,02,01,14,04,7.80
2020,02,01,14,05,7.80
2020,02,01,14,06,7.80
2020,02,01,14,07,7.80
2020,02,01,14,08,7.80
2020,02,01,14,09,7.80
2020,02,01,14,10,7.80
2020,02,01,14,11,7.80
2020,02,01,14,12,7.80
2020,02,01,14,13,7.70
2020,02,01,14,14,7.70
2020,02,01,14,15,7.70
2020,02,01,14,16,7.60
2020,02,01,14,17,7.60
2020,02,01,14,18,7.50
2020,02,01,14,19,7.40
2020,02,01,14,20,7.40
2020,02,01,14,21,7.30
2020,02,01,14,22,7.30
2020,02,01,14,23,7.20
2020,02,01,14,24,7.20
2020,02,01,14,25,7.20
2020,02,01,14,26,7.20
2020,02,01,14,27,7.20
2020,02,01,14,28,7.20
2020,02,01,14,29,7.20
2020,02,01,14,30,7.10
2020,02,01,14,31,7.10
2020,02,01,14,32,7.10
2020,02,01,14,33,7.10
2020,02,01,14,34,7.10
2020,02,01,14,35,7.00
2020,02,01,14,36,7.00
2020,02,01,14,37,7.00
2020,02,01,14,38,6.90
2020,02,01,14,39,7.00
2020,02,01,14,40,7.00
2020,02,01,14,41,7.00
2020,02,01,14,42,7.00
2020,02,01,14,43,7.00
2020,02,01,14,44,7.10
2020,02,01,14,45,7.10
2020,02,01,14,46,7.10
2020,02,01,14,47,7.00
2020,02,01,14,48,7.00
2020,02,01,14,49,6.90
2020,02,01,14,50,6.90
2020,02,01,14,51,6.80
2020,02,01,14,52,6.80
2020,02,01,14,53,6.70
2020,02,01,14,54,6.60
2020,02,01,14,55,6.50
2020,02,01,14,56,6.30
2020,02,01,14,57,6.30
2020,02,01,14,58,6.20
2020,02,01,14,59,6.10
2020,02,01,15,00,6.00
2020,02,01,15,01,5.90
2020,02,01,15,02,5.90
2020,02,01,15,03,5.90
2020,02,01,15,04,5.90
2020,02,01,15,05,5.90
2020,02,01,15,06,5.90
2020,02,01,15,07,5.90
2020,02,01,15,08,5.90
2020,02,01,15,09,5.90
2020,02,01,15,10,5.80
2020,02,01,15,11,5.80
2020,02,01,15,12,5.80
2020,02,01,15,13,5.80
2020,02,01,15,14,5.80
2020,02,01,15,15,5.80
2020,02,01,15,16,5.80
2020,02,01,15,17,5.80
2020,02,01,15,18,5.80
2020,02,01,15,19,5.80
2020,02,01,15,20,5.80
2020,02,01,15,21,5.80
2020,02,01,15,22,5.80
2020,02,01,15,23,5.80
2020,02,01,15,24,5.80
2020,02,01,15,25,5.80
2020,02,01,15,26,5.90
2020,02,01,15,27,5.90
2020,02,01,15,28,5.90
2020,02,01,15,29,5.90
2020,02,01,15,30,5.90
2020,02,01,15,31,5.90
2020,02,01,15,32,5.90
2020,02,01,15,33,6.00
2020,02,01,15,34,6.00
2020,02,01,15,35,6.00
2020,02,01,15,36,6.00
2020,02,01,15,37,6.10
2020,02,01,15,38,6.10
2020,02,01,15,39,6.10
2020,02,01,15,40,6.10
2020,02,01,15,41,6.10
2020,02,01,15,42,6.10
2020,02,01,15,43,6.20
2020,02,01,15,44,6.20
2020,02,01,15,45,6.20
2020,02,01,15,46,6.20
2020,02,01,15,47,6.20
2020,02,01,15,48,6.20
2020,02,01,15,49,6.20
2020,02,01,15,50,6.20
2020,02,01,15,51,6.20
2020,02,01,15,52,6.20
2020,02,01,15,53,6.20
2020,02,01,15,54,6.10
2020,02,01,15,55,6.10
2020,02,01,15,56,6.10
2020,02,01,15,57,6.00
2020,02,01,15,58,6.00
2020,02,01,15,59,6.00
2020,02,01,16,00,6.00
2020,02,01,16,01,5.90
2020,02,01,16,02,5.90
2020,02,01,16,03,5.90
2020,02,01,16,04,5.90
2020,02,01,16,05,5.90
2020,02,01,16,06,5.80
2020,02,01,16,07,5.80
2020,02,01,16,08,5.80
2020,02,01,16,09,5.80
2020,02,01,16,10,5.80
2020,02,01,16,11,5.80
2020,02,01,16,12,5.80
2020,02,01,16,13,5.80
2020,02,01,16,14,5.70
2020,02,01,16,15,5.70
2020,02,01,16,16,5.70
2020,02,01,16,17,5.70
2020,02,01,16,18,5.70
2020,02,01,16,19,5.70
2020,02,01,16,20,5.60
2020,02,01,16,21,5.60
2020,02,01,16,22,5.60
2020,02,01,16,23,5.60
2020,02,01,16,24,5.60
2020,02,01,16,25,5.50
2020,02,01,16,26,5.50
2020,02,01,16,27,5.50
2020,02,01,16,28,5.50
2020,02,01,16,29,5.50
2020,02,01,16,30,5.50
2020,02,01,16,31,5.40
2020,02,01,16,32,5.40
2020,02,01,16,33,5.40
2020,02,01,16,34,5.40
2020,02,01,16,35,5.40
2020,02,01,16,36,5.40
2020,02,01,16,37,5.40
2020,02,01,16,38,5.40
2020,02,01,16,39,5.40
2020,02,01,16,40,5.40
2020,02,01,16,41,5.30
2020,02,01,16,42,5.30
2020,02,01,16,43,5.30
2020,02,01,16,44,5.30
2020,02,01,16,45,5.30
2020,02,01,16,46,5.30
2020,02,01,16,47,5.30
2020,02,01,16,48,5.30
2020,02,01,16,49,5.20
2020,02,01,16,50,5.20
2020,02,01,16,51,5.20
2020,02,01,16,52,5.20
2020,02,01,16,53,5.10
2020,02,01,16,54,5.10
2020,02,01,16,55,5.10
2020,02,01,16,56,5.10
2020,02,01,16,57,5.00
2020,02,01,16,58,5.00
2020,02,01,16,59,4.90
2020,02,01,17,00,4.90
2020,02,01,17,01,4.90
2020,02,01,17,02,4.80
2020,02,01,17,03,4.80
2020,02,01,17,04,4.80
2020,02,01,17,05,4.80
2020,02,01,17,06,4.80
2020,02,01,17,07,4.80
2020,02,01,17,08,4.80
2020,02,01,17,09,4.80
2020,02,01,17,10,4.80
2020,02,01,17,11,4.70
2020,02,01,17,12,4.70
2020,02,01,17,13,4.70
2020,02,01,17,14,4.70
2020,02,01,17,15,4.70
2020,02,01,17,16,4.70
2020,02,01,17,17,4.60
2020,02,01,17,18,4.60
2020,02,01,17,19,4.60
2020,02,01,17,20,4.60
2020,02,01,17,21,4.60
2020,02,01,17,22,4.60
2020,02,01,17,23,4.60
2020,02,01,17,24,4.60
2020,02,01,17,25,4.50
2020,02,01,17,26,4.50
2020,02,01,17,27,4.50
2020,02,01,17,28,4.50
2020,02,01,17,29,4.50
2020,02,01,17,30,4.50
2020,02,01,17,31,4.50
2020,02,01,17,32,4.50
2020,02,01,17,33,4.50
2020,02,01,17,34,4.50
2020,02,01,17,35,4.50
2020,02,01,17,36,4.60
2020,02,01,17,37,4.60
2020,02,01,17,38,4.50
2020,02,01,17,39,4.50
2020,02,01,17,40,4.50
2020,02,01,17,41,4.50
2020,02,01,17,42,4.50
2020,02,01,17,43,4.50
2020,02,01,17,44,4.50
2020,02,01,17,45,4.50
2020,02,01,17,46,4.50
2020,02,01,17,47,4.50
2020,02,01,17,48,4.40
2020,02,01,17,49,4.40
2020,02,01,17,50,4.40